Location: Roland
(31.1349°N, 85.4372°W)
Time: 04:01:06
(UTC+00:00)

Courier 1B - Pass Details

Date: 28 April 2021
Orbit: 962 x 1209 km, 28.3° (Epoch: 07 May)

Event Time Altitude Azimuth Distance (km) Brightness Sun altitude
Rises 17:21:29 0° 269° (W) 3,892 10.6 72.8°
Reaches altitude 10° 17:24:19 10° 267° (W) 2,897 10.1 72.9°
Maximum altitude 17:31:19 69° 185° (S) 1,085 10.9 73.2°
Drops below altitude 10° 17:37:55 10° 103° (ESE) 2,736 10.1 73.3°
Sets 17:40:31 0° 101° (E) 3,663 10.6 73.3°
